VOI144 MMMX-MMGL

Flight info

Callsign VOI144
Flight time 0h 54m
Altitude 34000
Route OVAGO3A OVAGO UT123 IGSON IGSON1B
Aircraft A320/M-SDE3FGHIRWY/LB1

Departure

Time 2026-05-04 23:22
Airport Mexico City Benito Juárez International Airport (MMMX)

Arrival

Time 2026-05-05 00:16
Airport Guadalajara International Airport (MMGL)
Time Latitude Longitude Altitude Speed Heading
2026-05-04 22:42 19.43291 -99.08514 7312 ft 0 kts 328°
2026-05-04 22:50 19.43290 -99.08513 7312 ft 2 kts 328°
2026-05-04 22:50 19.43277 -99.08504 7303 ft 2 kts 328°
2026-05-04 22:50 19.43264 -99.08494 7303 ft 2 kts 323°
2026-05-04 22:50 19.43251 -99.08483 7303 ft 2 kts 318°
2026-05-04 22:51 19.43239 -99.08471 7303 ft 2 kts 309°
2026-05-04 22:51 19.43230 -99.08457 7303 ft 2 kts 278°
2026-05-04 22:51 19.43231 -99.08442 7303 ft 1 kts 238°
2026-05-04 22:51 19.43232 -99.08439 7303 ft 0 kts 237°
2026-05-04 23:17 19.43232 -99.08440 7303 ft 0 kts 237°
2026-05-04 23:17 19.43226 -99.08450 7303 ft 4 kts 237°
2026-05-04 23:17 19.43200 -99.08497 7303 ft 9 kts 242°
2026-05-04 23:17 19.43165 -99.08561 7303 ft 11 kts 240°
2026-05-04 23:18 19.43125 -99.08633 7303 ft 12 kts 238°
2026-05-04 23:18 19.43080 -99.08711 7303 ft 13 kts 238°
2026-05-04 23:18 19.43032 -99.08797 7303 ft 14 kts 240°
2026-05-04 23:18 19.42980 -99.08890 7303 ft 15 kts 239°
2026-05-04 23:19 19.42923 -99.08988 7303 ft 16 kts 235°
2026-05-04 23:19 19.42860 -99.09045 7303 ft 0 kts 208°
2026-05-04 23:19 19.42859 -99.09045 7303 ft 1 kts 208°
2026-05-04 23:19 19.42851 -99.09050 7303 ft 2 kts 208°
2026-05-04 23:20 19.42845 -99.09053 7303 ft 1 kts 208°
2026-05-04 23:20 19.42832 -99.09061 7303 ft 3 kts 208°
2026-05-04 23:20 19.42810 -99.09073 7303 ft 4 kts 208°
2026-05-04 23:20 19.42778 -99.09085 7303 ft 5 kts 184°
2026-05-04 23:21 19.42757 -99.09058 7303 ft 5 kts 90°
2026-05-04 23:21 19.42775 -99.09020 7303 ft 6 kts 60°
2026-05-04 23:21 19.42777 -99.09018 7303 ft 1 kts 60°
2026-05-04 23:21 19.42864 -99.08862 7303 ft 60 kts 59°
2026-05-04 23:22 19.43190 -99.08283 7302 ft 119 kts 58°
2026-05-04 23:22 19.43697 -99.07360 7305 ft 165 kts 53°
2026-05-04 23:22 19.44349 -99.06242 7568 ft 191 kts 63°
2026-05-04 23:22 19.45035 -99.05020 8574 ft 190 kts 59°
2026-05-04 23:23 19.45709 -99.03812 9346 ft 200 kts 59°
2026-05-04 23:23 19.46459 -99.02470 9541 ft 224 kts 59°
2026-05-04 23:23 19.47268 -99.01026 9689 ft 232 kts 59°
2026-05-04 23:23 19.48114 -98.99519 9901 ft 245 kts 60°
2026-05-04 23:24 19.49001 -98.97936 10170 ft 254 kts 61°
2026-05-04 23:24 19.49551 -98.96184 10244 ft 252 kts 92°
2026-05-04 23:24 19.49035 -98.94450 10337 ft 251 kts 129°
2026-05-04 23:24 19.47635 -98.93404 10446 ft 249 kts 166°
2026-05-04 23:25 19.45933 -98.93481 10566 ft 251 kts 204°
2026-05-04 23:25 19.44562 -98.94610 10703 ft 254 kts 230°
2026-05-04 23:25 19.43508 -98.96120 10834 ft 256 kts 237°
2026-05-04 23:25 19.42547 -98.97713 10977 ft 257 kts 238°
2026-05-04 23:26 19.41587 -98.99313 11096 ft 257 kts 238°
2026-05-04 23:26 19.40601 -99.00896 11208 ft 258 kts 236°
2026-05-04 23:26 19.39578 -99.02465 11331 ft 259 kts 236°
2026-05-04 23:26 19.38526 -99.04023 11531 ft 261 kts 234°
2026-05-04 23:27 19.37480 -99.05598 12195 ft 263 kts 242°
2026-05-04 23:27 19.36905 -99.07422 12837 ft 262 kts 263°
2026-05-04 23:27 19.36629 -99.09338 13534 ft 264 kts 263°
2026-05-04 23:27 19.36350 -99.11276 14133 ft 269 kts 264°
2026-05-04 23:28 19.36066 -99.13247 14667 ft 273 kts 264°
2026-05-04 23:28 19.35776 -99.15248 15223 ft 276 kts 263°
2026-05-04 23:28 19.35484 -99.17269 15770 ft 279 kts 263°
2026-05-04 23:28 19.35188 -99.19314 16321 ft 282 kts 263°
2026-05-04 23:29 19.34888 -99.21375 16867 ft 285 kts 263°
2026-05-04 23:29 19.34583 -99.23458 17423 ft 287 kts 263°
2026-05-04 23:29 19.34273 -99.25557 17967 ft 290 kts 263°
2026-05-04 23:29 19.33958 -99.27680 18493 ft 293 kts 263°
2026-05-04 23:30 19.33640 -99.29827 18961 ft 296 kts 263°
2026-05-04 23:30 19.33319 -99.31986 19424 ft 299 kts 263°
2026-05-04 23:30 19.32995 -99.34168 19892 ft 301 kts 263°
2026-05-04 23:30 19.32670 -99.36368 20354 ft 304 kts 263°
2026-05-04 23:31 19.32341 -99.38587 21092 ft 307 kts 263°
2026-05-04 23:31 19.31984 -99.40825 21602 ft 309 kts 261°
2026-05-04 23:31 19.31568 -99.43069 22119 ft 312 kts 259°
2026-05-04 23:31 19.31122 -99.45326 22585 ft 316 kts 259°
2026-05-04 23:32 19.30655 -99.47653 22757 ft 331 kts 259°
2026-05-04 23:32 19.30181 -99.50040 22992 ft 340 kts 259°
2026-05-04 23:32 19.29697 -99.52508 23379 ft 344 kts 259°
2026-05-04 23:32 19.29210 -99.54999 23828 ft 347 kts 259°
2026-05-04 23:33 19.28722 -99.57510 24191 ft 350 kts 259°
2026-05-04 23:33 19.28231 -99.60046 24555 ft 352 kts 259°
2026-05-04 23:33 19.27742 -99.62589 24946 ft 354 kts 259°
2026-05-04 23:33 19.27249 -99.65149 25306 ft 356 kts 259°
2026-05-04 23:34 19.26755 -99.67718 25651 ft 357 kts 259°
2026-05-04 23:34 19.26258 -99.70298 25985 ft 359 kts 259°
2026-05-04 23:34 19.25756 -99.72897 26310 ft 361 kts 259°
2026-05-04 23:34 19.25250 -99.75506 26667 ft 362 kts 259°
2026-05-04 23:35 19.24740 -99.78121 27020 ft 364 kts 259°
2026-05-04 23:35 19.24228 -99.80749 27352 ft 366 kts 259°
2026-05-04 23:35 19.23729 -99.83399 27684 ft 368 kts 260°
2026-05-04 23:35 19.23240 -99.86095 27797 ft 377 kts 259°
2026-05-04 23:36 19.22750 -99.88853 27888 ft 387 kts 260°
2026-05-04 23:36 19.22246 -99.91688 27965 ft 396 kts 259°
2026-05-04 23:36 19.21723 -99.94583 28074 ft 405 kts 259°
2026-05-04 23:36 19.21182 -99.97534 28205 ft 413 kts 259°
2026-05-04 23:37 19.20071 -100.03582 28429 ft 430 kts 259°
2026-05-04 23:37 19.19499 -100.06722 28564 ft 438 kts 259°
2026-05-04 23:37 19.18931 -100.09910 28686 ft 445 kts 262°
2026-05-04 23:38 19.18737 -100.13188 28843 ft 449 kts 273°
2026-05-04 23:38 19.19117 -100.16466 29145 ft 451 kts 283°
2026-05-04 23:38 19.20015 -100.19652 29482 ft 453 kts 289°
2026-05-04 23:38 19.21024 -100.22811 29834 ft 454 kts 289°
2026-05-04 23:39 19.22039 -100.25992 30160 ft 456 kts 289°
2026-05-04 23:39 19.23052 -100.29176 30405 ft 458 kts 289°
2026-05-04 23:39 19.24065 -100.32375 30739 ft 460 kts 289°
2026-05-04 23:39 19.25082 -100.35594 31045 ft 461 kts 289°
2026-05-04 23:40 19.26097 -100.38804 31493 ft 459 kts 289°
2026-05-04 23:40 19.27109 -100.41998 31953 ft 457 kts 289°
2026-05-04 23:40 19.28120 -100.45183 32361 ft 456 kts 289°
2026-05-04 23:40 19.29127 -100.48363 32821 ft 454 kts 289°
2026-05-04 23:41 19.30129 -100.51527 33296 ft 452 kts 290°
2026-05-04 23:41 19.31127 -100.54677 33679 ft 451 kts 290°
2026-05-04 23:41 19.33100 -100.60919 33762 ft 442 kts 289°
2026-05-04 23:42 19.35032 -100.67029 33799 ft 440 kts 289°
2026-05-04 23:42 19.36972 -100.73172 33799 ft 439 kts 290°
2026-05-04 23:43 19.39020 -100.79262 33805 ft 440 kts 291°
2026-05-04 23:43 19.41157 -100.85325 33804 ft 439 kts 291°
2026-05-04 23:44 19.43291 -100.91390 33815 ft 439 kts 291°
2026-05-04 23:44 19.45386 -100.97471 33813 ft 440 kts 290°
2026-05-04 23:45 19.47456 -101.03561 33871 ft 439 kts 290°
2026-05-04 23:45 19.49528 -101.09643 33875 ft 438 kts 291°
2026-05-04 23:46 19.51610 -101.15705 33877 ft 438 kts 291°
2026-05-04 23:46 19.53692 -101.21778 33879 ft 438 kts 291°
2026-05-04 23:47 19.55758 -101.27843 33886 ft 437 kts 291°
2026-05-04 23:47 19.57807 -101.33859 33920 ft 436 kts 291°
2026-05-04 23:48 19.59873 -101.39920 33913 ft 437 kts 291°
2026-05-04 23:48 19.61935 -101.45976 33935 ft 437 kts 290°
2026-05-04 23:49 19.63998 -101.52045 33935 ft 437 kts 291°
2026-05-04 23:49 19.66064 -101.58128 33898 ft 440 kts 290°
2026-05-04 23:50 19.68143 -101.64263 33916 ft 444 kts 290°
2026-05-04 23:50 19.70216 -101.70383 33747 ft 432 kts 290°
2026-05-04 23:51 19.71224 -101.73362 33391 ft 426 kts 290°
2026-05-04 23:51 19.72219 -101.76307 32972 ft 422 kts 290°
2026-05-04 23:51 19.73204 -101.79229 32564 ft 418 kts 290°
2026-05-04 23:51 19.74178 -101.82124 32150 ft 415 kts 290°
2026-05-04 23:52 19.75142 -101.84991 31784 ft 410 kts 290°
2026-05-04 23:52 19.76100 -101.87837 31347 ft 408 kts 290°
2026-05-04 23:52 19.77056 -101.90664 30958 ft 405 kts 290°
2026-05-04 23:52 19.78005 -101.93470 30547 ft 403 kts 290°
2026-05-04 23:53 19.78944 -101.96252 30241 ft 398 kts 291°
2026-05-04 23:53 19.79867 -101.98996 29718 ft 392 kts 290°
2026-05-04 23:53 19.80473 -102.00799 29242 ft 391 kts 290°
2026-05-04 23:53 19.81384 -102.03512 28512 ft 389 kts 290°
2026-05-04 23:54 19.82291 -102.06211 27829 ft 387 kts 290°
2026-05-04 23:54 19.83190 -102.08890 27175 ft 384 kts 290°
2026-05-04 23:54 19.84085 -102.11556 26529 ft 382 kts 290°
2026-05-04 23:54 19.85262 -102.15065 25649 ft 380 kts 290°
2026-05-04 23:55 19.85859 -102.16845 25207 ft 379 kts 290°
2026-05-04 23:55 19.86739 -102.19478 24551 ft 377 kts 290°
2026-05-04 23:55 19.88488 -102.24717 23322 ft 374 kts 289°
2026-05-04 23:56 19.89351 -102.27299 22685 ft 370 kts 290°
2026-05-04 23:56 19.90210 -102.29868 21906 ft 370 kts 289°
2026-05-04 23:56 19.91069 -102.32438 21343 ft 369 kts 290°
2026-05-04 23:56 19.91929 -102.35012 20870 ft 369 kts 290°
2026-05-04 23:57 19.92788 -102.37583 20421 ft 370 kts 291°
2026-05-04 23:57 19.93649 -102.40160 19981 ft 369 kts 290°
2026-05-04 23:57 19.94511 -102.42736 19534 ft 370 kts 291°
2026-05-04 23:57 19.95372 -102.45316 19088 ft 371 kts 291°
2026-05-04 23:58 19.96230 -102.47901 18659 ft 370 kts 290°
2026-05-04 23:58 19.97073 -102.50451 18176 ft 371 kts 291°
2026-05-04 23:58 19.97939 -102.53047 17538 ft 374 kts 292°
2026-05-04 23:58 19.98803 -102.55640 17154 ft 369 kts 291°
2026-05-04 23:59 19.99700 -102.58180 16736 ft 364 kts 297°
2026-05-04 23:59 20.01023 -102.60449 16241 ft 360 kts 312°
2026-05-04 23:59 20.02814 -102.62261 15847 ft 352 kts 324°
2026-05-04 23:59 20.04921 -102.63577 15397 ft 350 kts 334°
2026-05-05 00:00 20.07058 -102.64716 14936 ft 345 kts 333°
2026-05-05 00:00 20.08487 -102.65485 14624 ft 337 kts 332°
2026-05-05 00:00 20.11188 -102.66945 14085 ft 321 kts 332°
2026-05-05 00:00 20.13128 -102.67995 13900 ft 303 kts 332°
2026-05-05 00:01 20.15072 -102.68735 13758 ft 295 kts 347°
2026-05-05 00:01 20.17113 -102.68818 13730 ft 296 kts
2026-05-05 00:01 20.19103 -102.68250 13735 ft 297 kts 21°
2026-05-05 00:01 20.21014 -102.67384 13736 ft 299 kts 22°
2026-05-05 00:02 20.22927 -102.66515 13735 ft 298 kts 22°
2026-05-05 00:02 20.24831 -102.65651 13733 ft 298 kts 21°
2026-05-05 00:02 20.26742 -102.64785 13735 ft 298 kts 21°
2026-05-05 00:02 20.28652 -102.63919 13728 ft 298 kts 21°
2026-05-05 00:03 20.30564 -102.63055 13727 ft 298 kts 22°
2026-05-05 00:03 20.32475 -102.62190 13728 ft 298 kts 20°
2026-05-05 00:03 20.34464 -102.61605 13729 ft 297 kts
2026-05-05 00:03 20.36511 -102.61567 13729 ft 293 kts 350°
2026-05-05 00:04 20.38542 -102.61828 13731 ft 294 kts 350°
2026-05-05 00:04 20.40571 -102.62090 13730 ft 294 kts 350°
2026-05-05 00:04 20.42602 -102.62365 13687 ft 294 kts 346°
2026-05-05 00:04 20.44490 -102.63115 13434 ft 286 kts 323°
2026-05-05 00:05 20.45927 -102.64518 13180 ft 278 kts 303°
2026-05-05 00:05 20.46752 -102.66343 12932 ft 271 kts 282°
2026-05-05 00:05 20.46897 -102.68309 12682 ft 265 kts 262°
2026-05-05 00:05 20.46522 -102.70220 12429 ft 262 kts 257°
2026-05-05 00:06 20.46113 -102.72117 12191 ft 265 kts 257°
2026-05-05 00:06 20.45702 -102.74052 11951 ft 268 kts 257°
2026-05-05 00:06 20.45295 -102.75979 11710 ft 264 kts 257°
2026-05-05 00:06 20.44897 -102.77877 11499 ft 259 kts 256°
2026-05-05 00:07 20.44510 -102.79718 11377 ft 250 kts 257°
2026-05-05 00:07 20.44134 -102.81489 11114 ft 249 kts 257°
2026-05-05 00:07 20.43749 -102.83296 10868 ft 247 kts 257°
2026-05-05 00:07 20.43369 -102.85079 10551 ft 249 kts 257°
2026-05-05 00:08 20.42981 -102.86891 10204 ft 251 kts 258°
2026-05-05 00:08 20.42594 -102.88697 9906 ft 250 kts 257°
2026-05-05 00:08 20.42210 -102.90504 9613 ft 249 kts 258°
2026-05-05 00:08 20.41828 -102.92300 9311 ft 248 kts 257°
2026-05-05 00:09 20.41448 -102.94079 9131 ft 242 kts 258°
2026-05-05 00:09 20.41080 -102.95800 9051 ft 236 kts 258°
2026-05-05 00:09 20.40713 -102.97514 8968 ft 235 kts 257°
2026-05-05 00:09 20.40351 -102.99209 8873 ft 234 kts 258°
2026-05-05 00:10 20.40030 -103.00903 8770 ft 234 kts 266°
2026-05-05 00:10 20.40222 -103.02613 8733 ft 233 kts 287°
2026-05-05 00:10 20.40823 -103.04200 8727 ft 226 kts 293°
2026-05-05 00:10 20.41461 -103.05677 8728 ft 212 kts 293°
2026-05-05 00:11 20.42051 -103.07060 8675 ft 197 kts 292°
2026-05-05 00:11 20.42589 -103.08328 8507 ft 180 kts 292°
2026-05-05 00:11 20.43095 -103.09529 8274 ft 177 kts 293°
2026-05-05 00:11 20.43598 -103.10721 8078 ft 174 kts 292°
2026-05-05 00:12 20.44091 -103.11890 7879 ft 174 kts 291°
2026-05-05 00:12 20.44582 -103.13055 7853 ft 171 kts 291°
2026-05-05 00:12 20.45076 -103.14228 7661 ft 174 kts 292°
2026-05-05 00:12 20.45568 -103.15394 7484 ft 174 kts 292°
2026-05-05 00:13 20.46058 -103.16558 7292 ft 172 kts 294°
2026-05-05 00:13 20.46547 -103.17718 7119 ft 173 kts 294°
2026-05-05 00:13 20.47039 -103.18885 6930 ft 172 kts 293°
2026-05-05 00:13 20.47525 -103.20040 6749 ft 171 kts 293°
2026-05-05 00:14 20.48013 -103.21199 6576 ft 171 kts 294°
2026-05-05 00:14 20.48491 -103.22333 6397 ft 159 kts 294°
2026-05-05 00:14 20.48929 -103.23375 6240 ft 150 kts 294°
2026-05-05 00:14 20.49346 -103.24365 6105 ft 145 kts 294°
2026-05-05 00:15 20.49756 -103.25338 5945 ft 145 kts 295°
2026-05-05 00:15 20.50165 -103.26312 5749 ft 144 kts 294°
2026-05-05 00:15 20.50571 -103.27283 5548 ft 144 kts 291°
2026-05-05 00:15 20.50978 -103.28250 5317 ft 141 kts 292°
2026-05-05 00:16 20.51373 -103.29199 5090 ft 139 kts 296°
2026-05-05 00:16 20.51746 -103.30066 5029 ft 111 kts 293°
2026-05-05 00:16 20.51990 -103.30649 5028 ft 61 kts 294°
2026-05-05 00:16 20.52103 -103.30922 5028 ft 30 kts 295°
2026-05-05 00:17 20.52192 -103.31091 5032 ft 18 kts 339°
2026-05-05 00:17 20.52271 -103.31053 5031 ft 13 kts 26°
2026-05-05 00:17 20.52347 -103.31010 5031 ft 10 kts 30°
2026-05-05 00:17 20.52410 -103.30970 5031 ft 11 kts 36°
2026-05-05 00:18 20.52443 -103.30892 5028 ft 11 kts 70°
2026-05-05 00:18 20.52472 -103.30808 5029 ft 13 kts 70°
2026-05-05 00:18 20.52505 -103.30713 5029 ft 14 kts 70°
2026-05-05 00:18 20.52541 -103.30609 5029 ft 15 kts 73°
2026-05-05 00:19 20.52472 -103.30544 5029 ft 15 kts 153°
2026-05-05 00:19 20.52421 -103.30452 5026 ft 15 kts 102°
2026-05-05 00:19 20.52452 -103.30370 5029 ft 11 kts 103°
2026-05-05 00:19 20.52428 -103.30289 5029 ft 12 kts 108°
2026-05-05 00:20 20.52404 -103.30197 5029 ft 13 kts 102°
2026-05-05 00:20 20.52374 -103.30098 5027 ft 15 kts 109°
2026-05-05 00:20 20.52368 -103.30044 5029 ft 4 kts 21°
2026-05-05 00:20 20.52399 -103.30034 5029 ft 5 kts 19°
2026-05-05 00:21 20.52415 -103.30028 5029 ft 0 kts 19°